EW7341 Weather Reports


time (UTC)temp
C
wind
direction
speed
KPH
gust
KPH
rain 1hr
cm
rain 24hr
cm
rain mn
cm
humidity
%
barometer
mb
20260506033006 11 59 4.8 11.3 0.00 0.00 0.00 74 1007.9
20260506031509 12 71 6.4 16.1 0.00 0.00 0.00 73 1008.1
20260506030015 12 59 4.8 19.3 0.00 0.00 0.00 74 1008.0
20260506024523 12 84 3.2 16.1 0.00 0.00 0.00 73 1007.6
20260506023106 12 32 3.2 14.5 0.00 0.00 0.00 73 1007.3
20260506021511 12 76 3.2 11.3 0.00 0.00 0.00 73 1007.3
20260506020020 12 54 1.6 14.5 0.00 0.00 0.00 73 1006.8
20260506014506 12 1 6.4 12.9 0.00 0.00 0.00 73 1006.4
20260506013106 12 96 1.6 14.5 0.00 0.00 0.00 73 1006.2
20260506011535 13 56 1.6 14.5 0.00 0.00 0.00 74 1005.7
20260506010020 13 4 4.8 12.9 0.00 0.00 0.00 75 1005.2
20260506004516 13 65 3.2 14.5 0.00 0.00 0.00 74 1005.2
20260506003102 13 65 4.8 12.9 0.00 0.00 0.00 74 1005.1
20260506001510 13 8 1.6 14.5 0.00 0.00 0.00 73 1005.0
20260506000022 14 26 3.2 17.7 0.00 0.00 0.00 72 1004.6
20260505234521 15 99 3.2 12.9 0.00 0.00 0.00 72 1004.7
20260505233104 15 55 4.8 14.5 0.00 0.00 0.00 71 1004.8
20260505231508 16 53 4.8 11.3 0.00 0.00 0.00 69 1004.6
20260505230021 17 55 3.2 16.1 0.00 0.00 0.00 68 1004.8
20260505224520 17 70 4.8 16.1 0.00 0.00 0.00 65 1004.4
20260505223102 18 53 3.2 16.1 0.00 0.00 0.00 64 1004.3
20260505221509 19 86 4.8 12.9 0.00 0.00 0.00 63 1003.8
20260505220042 19 6 4.8 17.7 0.00 0.00 0.00 63 1003.9
20260505214509 20 327 3.2 12.9 0.00 0.00 0.00 62 1004.2
20260505213109 20 319 3.2 11.3 0.00 0.00 0.00 60 1003.9
20260505211518 20 36 4.8 11.3 0.00 0.00 0.00 60 1003.8
20260505210010 20 313 4.8 16.1 0.00 0.00 0.00 59 1003.6
20260505204511 21 58 1.6 9.7 0.00 0.00 0.00 59 1003.7
20260505203114 21 293 3.2 12.9 0.00 0.00 0.00 60 1003.5
20260505201503 21 330 4.8 12.9 0.00 0.00 0.00 59 1003.4
20260505200011 21 55 3.2 14.5 0.00 0.00 0.00 59 1003.3
20260505194522 21 328 1.6 12.9 0.00 0.00 0.00 62 1003.2
20260505193103 21 356 3.2 16.1 0.00 0.00 0.00 60 1003.3
20260505191514 21 320 8.0 12.9 0.00 0.00 0.00 60 1003.4
20260505190016 21 303 6.4 12.9 0.00 0.00 0.00 60 1003.2
20260505184526 21 321 4.8 14.5 0.00 0.00 0.00 61 1003.3
20260505183007 22 314 9.7 17.7 0.00 0.00 0.00 59 1003.0
20260505181514 22 336 8.0 16.1 0.00 0.00 0.00 59 1002.4
20260505180024 22 308 9.7 19.3 0.00 0.00 0.00 60 1002.4
20260505174508 22 304 9.7 16.1 0.00 0.00 0.00 61 1002.4
20260505173104 22 322 9.7 19.3 0.00 0.00 0.00 62 1002.0
20260505171514 22 311 8.0 16.1 0.00 0.00 0.00 64 1001.8
20260505170022 22 321 9.7 17.7 0.00 0.00 0.00 65 1001.7
20260505164505 22 322 8.0 19.3 0.00 0.00 0.00 62 1001.1
20260505163110 23 355 8.0 14.5 0.00 0.00 0.00 63 1000.7
20260505161515 24 289 4.8 11.3 0.00 0.00 0.00 62 1000.8
20260505153124 25 348 8.0 16.1 0.00 0.00 0.00 35 999.7
20260505151519 25 314 6.4 24.1 0.00 0.00 0.00 39 999.2
20260505124503 20 218 6.4 14.5 0.00 0.00 0.00 81 997.5
20260505123109 20 198 9.7 17.7 0.00 0.00 0.00 81 997.4
20260505121515 20 252 6.4 17.7 0.00 0.00 0.00 80 997.4
20260505120021 20 192 9.7 19.3 0.00 0.00 0.00 80 997.3
20260505114621 20 189 12.9 24.1 0.00 0.00 0.00 80 997.0
20260505113116 20 176 12.9 20.9 0.00 0.00 0.00 79 997.0
20260505111523 20 192 11.3 22.5 0.00 0.00 0.00 79 997.0
20260505101522 21 205 11.3 20.9 0.00 0.00 0.00 76 996.8
20260505100010 21 208 12.9 24.1 0.00 0.00 0.00 75 996.6
20260505094512 22 212 14.5 22.5 0.00 0.00 0.00 75 996.6
20260505093114 22 183 14.5 24.1 0.00 0.00 0.00 74 996.8
20260505091521 22 193 11.3 20.9 0.00 0.00 0.00 73 996.7
20260505090014 22 214 14.5 25.7 0.00 0.00 0.00 72 996.9
20260505084533 23 200 12.9 27.4 0.00 0.00 0.00 71 996.8
20260505083005 23 217 14.5 24.1 0.00 0.00 0.00 71 996.9
20260505081514 23 210 14.5 25.7 0.00 0.00 0.00 70 997.0
20260505080019 23 193 16.1 29.0 0.00 0.00 0.00 69 997.1
20260505074522 23 198 14.5 25.7 0.00 0.00 0.00 69 997.2
20260505073108 23 219 14.5 25.7 0.00 0.00 0.00 69 997.2
20260505071513 23 209 14.5 33.8 0.00 0.00 0.00 68 997.6
20260505070033 24 207 16.1 29.0 0.00 0.00 0.00 68 997.7
20260505064524 24 220 12.9 24.1 0.00 0.00 0.00 68 997.9
20260505063107 24 206 12.9 29.0 0.00 0.00 0.00 68 998.1
20260505061519 23 201 11.3 19.3 0.00 0.00 0.00 70 998.3
20260505060028 23 190 8.0 16.1 0.00 0.00 0.00 71 998.2
20260505054507 23 209 6.4 12.9 0.00 0.00 0.00 73 998.4
20260505053118 23 190 4.8 14.5 0.00 0.00 0.00 73 998.4
20260505051520 23 176 6.4 14.5 0.00 0.00 0.00 73 998.4
20260505041502 24 200 6.4 29.0 0.00 0.00 0.00 68 998.7
20260505040011 25 181 8.0 22.5 0.00 0.00 0.00 67 998.5
20260505034519 25 249 9.7 19.3 0.00 0.00 0.00 67 998.7